Time,TemperatureF,DewpointF,PressureIn,WindDirection,WindDirectionDegrees,WindSpeedMPH,WindSpeedGustMPH,Humidity,HourlyPrecipIn,Conditions,Clouds,dailyrainin,SoftwareType,DateUTC
2013-04-02 00:01:00,54.8,44.0,29.99,ENE,71,7.0,15.0,68,0.00,,,0.00,weatherlink.com 1.10,2013-04-02 05:01:00,
2013-04-02 00:16:00,54.3,44.0,30.00,ENE,73,7.0,15.0,68,0.00,,,0.00,weatherlink.com 1.10,2013-04-02 05:16:00,
2013-04-02 00:31:00,54.4,44.0,30.00,East,86,6.0,12.0,68,0.00,,,0.00,weatherlink.com 1.10,2013-04-02 05:31:00,
2013-04-02 00:46:00,54.6,44.0,30.00,ENE,69,3.0,10.0,68,0.00,,,0.00,weatherlink.com 1.10,2013-04-02 05:46:00,
2013-04-02 01:01:00,55.3,45.0,30.00,NE,34,4.0,7.0,68,0.00,,,0.00,weatherlink.com 1.10,2013-04-02 06:01:00,
2013-04-02 01:16:00,55.6,45.0,29.99,ENE,76,3.0,10.0,68,0.00,,,0.00,weatherlink.com 1.10,2013-04-02 06:16:00,
2013-04-02 01:31:00,56.4,46.0,29.99,NE,56,4.0,12.0,68,0.00,,,0.00,weatherlink.com 1.10,2013-04-02 06:31:00,
2013-04-02 02:01:00,55.5,45.0,29.97,ENE,65,7.0,15.0,69,0.00,,,0.00,weatherlink.com 1.10,2013-04-02 07:01:00,
2013-04-02 02:16:00,55.4,46.0,29.98,NNE,18,5.0,10.0,72,0.00,,,0.00,weatherlink.com 1.10,2013-04-02 07:16:00,
2013-04-02 02:31:00,50.8,46.0,29.98,NE,48,9.0,19.0,82,0.00,,,0.00,weatherlink.com 1.10,2013-04-02 07:31:00,
2013-04-02 02:46:00,50.1,46.0,29.99,NNE,30,11.0,16.0,85,0.00,,,0.00,weatherlink.com 1.10,2013-04-02 07:46:00,
2013-04-02 03:01:00,49.7,45.0,30.00,NNE,21,13.0,17.0,85,0.00,,,0.00,weatherlink.com 1.10,2013-04-02 08:01:00,
2013-04-02 03:16:00,48.8,45.0,30.00,NE,37,10.0,20.0,86,0.00,,,0.00,weatherlink.com 1.10,2013-04-02 08:16:00,
2013-04-02 03:31:00,47.8,44.0,29.99,NNE,19,16.0,17.0,86,0.00,,,0.00,weatherlink.com 1.10,2013-04-02 08:31:00,
2013-04-02 03:46:00,47.1,44.0,30.00,ENE,60,13.0,18.0,87,0.00,,,0.00,weatherlink.com 1.10,2013-04-02 08:46:00,
2013-04-02 04:02:00,47.1,43.0,30.00,NNE,24,8.0,15.0,86,0.00,,,0.00,weatherlink.com 1.10,2013-04-02 09:02:00,
2013-04-02 04:17:00,45.9,42.0,29.99,NNE,13,15.0,19.0,86,0.00,,,0.00,weatherlink.com 1.10,2013-04-02 09:17:00,
2013-04-02 04:32:00,45.7,42.0,29.98,NE,44,13.0,17.0,86,0.00,,,0.00,weatherlink.com 1.10,2013-04-02 09:32:00,
2013-04-02 04:47:00,46.4,42.0,29.98,NE,34,5.0,15.0,85,0.00,,,0.00,weatherlink.com 1.10,2013-04-02 09:47:00,
2013-04-02 05:02:00,46.8,43.0,30.01,North,5,12.0,17.0,85,0.00,,,0.00,weatherlink.com 1.10,2013-04-02 10:02:00,
2013-04-02 05:17:00,44.0,41.0,30.00,NE,37,15.0,19.0,89,0.00,,,0.00,weatherlink.com 1.10,2013-04-02 10:17:00,
2013-04-02 05:32:00,43.4,41.0,30.00,NE,52,3.0,18.0,92,0.01,,,0.01,weatherlink.com 1.10,2013-04-02 10:32:00,
2013-04-02 05:47:00,43.1,41.0,29.99,ENE,78,15.0,18.0,93,0.02,,,0.02,weatherlink.com 1.10,2013-04-02 10:47:00,
2013-04-02 06:02:00,43.1,41.0,30.00,NE,52,9.0,17.0,93,0.04,,,0.04,weatherlink.com 1.10,2013-04-02 11:02:00,
2013-04-02 06:32:00,44.0,42.0,29.98,ENE,61,14.0,16.0,92,0.04,,,0.05,weatherlink.com 1.10,2013-04-02 11:32:00,
2013-04-02 06:47:00,44.1,42.0,29.98,ENE,60,5.0,15.0,92,0.04,,,0.06,weatherlink.com 1.10,2013-04-02 11:47:00,
2013-04-02 07:02:00,44.2,42.0,30.00,NE,53,5.0,12.0,93,0.03,,,0.07,weatherlink.com 1.10,2013-04-02 12:02:00,
2013-04-02 07:17:00,44.4,42.0,30.00,NE,51,6.0,14.0,92,0.04,,,0.08,weatherlink.com 1.10,2013-04-02 12:17:00,
2013-04-02 07:32:00,44.5,42.0,30.01,NE,36,6.0,15.0,92,0.02,,,0.08,weatherlink.com 1.10,2013-04-02 12:32:00,
2013-04-02 07:47:00,44.5,42.0,30.00,NE,55,16.0,18.0,92,0.03,,,0.09,weatherlink.com 1.10,2013-04-02 12:47:00,
2013-04-02 08:02:00,44.3,42.0,30.02,NE,34,5.0,15.0,91,0.03,,,0.10,weatherlink.com 1.10,2013-04-02 13:02:00,
2013-04-02 08:17:00,44.4,42.0,30.02,NNE,32,11.0,14.0,92,0.02,,,0.10,weatherlink.com 1.10,2013-04-02 13:17:00,
2013-04-02 08:32:00,44.5,42.0,30.02,NE,39,4.0,15.0,92,0.04,,,0.12,weatherlink.com 1.10,2013-04-02 13:32:00,
2013-04-02 08:47:00,43.8,42.0,30.01,NE,54,6.0,16.0,92,0.03,,,0.12,weatherlink.com 1.10,2013-04-02 13:47:00,
2013-04-02 09:02:00,43.7,42.0,30.03,NE,38,5.0,15.0,92,0.03,,,0.13,weatherlink.com 1.10,2013-04-02 14:02:00,
2013-04-02 09:17:00,43.4,41.0,30.05,NNE,17,16.0,16.0,91,0.04,,,0.14,weatherlink.com 1.10,2013-04-02 14:17:00,
2013-04-02 09:32:00,42.9,41.0,30.05,NNE,22,16.0,17.0,92,0.02,,,0.14,weatherlink.com 1.10,2013-04-02 14:32:00,
2013-04-02 09:47:00,42.6,41.0,30.04,NE,44,15.0,17.0,92,0.02,,,0.14,weatherlink.com 1.10,2013-04-02 14:47:00,
2013-04-02 10:02:00,42.7,41.0,30.04,NE,53,5.0,18.0,92,0.02,,,0.15,weatherlink.com 1.10,2013-04-02 15:02:00,
2013-04-02 10:17:00,43.0,41.0,30.05,ENE,59,12.0,20.0,93,0.01,,,0.15,weatherlink.com 1.10,2013-04-02 15:17:00,
2013-04-02 10:32:00,43.6,42.0,30.05,ENE,67,3.0,15.0,92,0.01,,,0.15,weatherlink.com 1.10,2013-04-02 15:32:00,
2013-04-02 10:48:00,43.8,42.0,30.05,NE,55,14.0,16.0,92,0.01,,,0.15,weatherlink.com 1.10,2013-04-02 15:48:00,
2013-04-02 11:02:00,44.3,42.0,30.05,ENE,58,17.0,17.0,92,0.00,,,0.15,weatherlink.com 1.10,2013-04-02 16:02:00,
2013-04-02 11:17:00,44.8,43.0,30.05,ENE,63,11.0,16.0,92,0.00,,,0.15,weatherlink.com 1.10,2013-04-02 16:17:00,
2013-04-02 11:32:00,45.4,43.0,30.04,NE,55,12.0,16.0,91,0.00,,,0.15,weatherlink.com 1.10,2013-04-02 16:32:00,
2013-04-02 11:47:00,45.9,44.0,30.04,NNE,24,15.0,19.0,91,0.00,,,0.15,weatherlink.com 1.10,2013-04-02 16:47:00,
2013-04-02 12:02:00,46.4,44.0,30.04,ENE,67,10.0,18.0,91,0.00,,,0.15,weatherlink.com 1.10,2013-04-02 17:02:00,
2013-04-02 12:17:00,47.0,45.0,30.04,NNE,31,10.0,16.0,91,0.00,,,0.15,weatherlink.com 1.10,2013-04-02 17:17:00,
2013-04-02 12:32:00,47.4,45.0,30.04,ENE,63,9.0,17.0,91,0.00,,,0.15,weatherlink.com 1.10,2013-04-02 17:32:00,
2013-04-02 12:47:00,47.6,45.0,30.04,NNE,22,0.0,16.0,91,0.00,,,0.15,weatherlink.com 1.10,2013-04-02 17:47:00,
2013-04-02 13:02:00,46.6,44.0,30.04,NNE,26,4.0,13.0,92,0.00,,,0.15,weatherlink.com 1.10,2013-04-02 18:02:00,
2013-04-02 13:17:00,46.1,44.0,30.04,NNE,31,9.0,14.0,93,0.00,,,0.15,weatherlink.com 1.10,2013-04-02 18:17:00,
2013-04-02 13:32:00,45.9,44.0,30.04,NNE,31,7.0,12.0,93,0.00,,,0.15,weatherlink.com 1.10,2013-04-02 18:32:00,
2013-04-02 14:02:00,45.7,44.0,30.03,NE,50,5.0,14.0,94,0.00,,,0.15,weatherlink.com 1.10,2013-04-02 19:02:00,
2013-04-02 14:17:00,45.6,44.0,30.02,NE,52,4.0,14.0,94,0.00,,,0.15,weatherlink.com 1.10,2013-04-02 19:17:00,
2013-04-02 14:32:00,45.8,44.0,30.02,NE,53,6.0,12.0,94,0.00,,,0.15,weatherlink.com 1.10,2013-04-02 19:32:00,
2013-04-02 15:02:00,46.0,44.0,30.01,NE,55,7.0,12.0,94,0.00,,,0.15,weatherlink.com 1.10,2013-04-02 20:02:00,
2013-04-02 15:17:00,46.2,45.0,30.01,NNE,24,6.0,14.0,95,0.00,,,0.15,weatherlink.com 1.10,2013-04-02 20:17:00,
2013-04-02 15:32:00,45.8,44.0,30.02,NNE,19,6.0,16.0,94,0.00,,,0.15,weatherlink.com 1.10,2013-04-02 20:32:00,
2013-04-02 15:47:00,45.4,44.0,30.01,NE,38,10.0,18.0,94,0.00,,,0.15,weatherlink.com 1.10,2013-04-02 20:47:00,
2013-04-02 16:02:00,45.2,44.0,30.00,NE,39,15.0,16.0,95,0.01,,,0.16,weatherlink.com 1.10,2013-04-02 21:02:00,
2013-04-02 16:32:00,44.6,43.0,30.00,NE,38,13.0,16.0,94,0.02,,,0.17,weatherlink.com 1.10,2013-04-02 21:32:00,
2013-04-02 16:47:00,44.4,43.0,30.01,NE,43,16.0,18.0,95,0.02,,,0.18,weatherlink.com 1.10,2013-04-02 21:47:00,
2013-04-02 17:02:00,44.4,43.0,30.04,NNE,18,5.0,19.0,95,0.02,,,0.18,weatherlink.com 1.10,2013-04-02 22:02:00,
2013-04-02 17:17:00,44.1,43.0,30.02,NNE,30,4.0,16.0,95,0.03,,,0.19,weatherlink.com 1.10,2013-04-02 22:17:00,
2013-04-02 17:32:00,44.0,43.0,30.02,NE,46,11.0,16.0,95,0.04,,,0.21,weatherlink.com 1.10,2013-04-02 22:32:00,
2013-04-02 17:47:00,44.0,43.0,30.01,NE,46,7.0,17.0,95,0.04,,,0.22,weatherlink.com 1.10,2013-04-02 22:47:00,
2013-04-02 18:02:00,44.2,43.0,30.01,NNE,32,8.0,14.0,95,0.06,,,0.24,weatherlink.com 1.10,2013-04-02 23:02:00,
2013-04-02 18:17:00,44.4,43.0,30.02,ENE,58,4.0,13.0,95,0.06,,,0.25,weatherlink.com 1.10,2013-04-02 23:17:00,
2013-04-02 18:32:00,44.3,43.0,30.00,NE,37,6.0,16.0,95,0.05,,,0.26,weatherlink.com 1.10,2013-04-02 23:32:00,
2013-04-02 18:47:00,43.8,42.0,30.02,NE,36,12.0,16.0,94,0.06,,,0.28,weatherlink.com 1.10,2013-04-02 23:47:00,
2013-04-02 19:02:00,43.7,42.0,30.02,NE,55,10.0,14.0,94,0.05,,,0.29,weatherlink.com 1.10,2013-04-03 00:02:00,
2013-04-02 19:17:00,43.7,42.0,30.02,NNE,28,8.0,17.0,95,0.05,,,0.30,weatherlink.com 1.10,2013-04-03 00:17:00,
2013-04-02 19:32:00,43.7,42.0,29.94,ENE,73,16.0,25.0,95,0.05,,,0.31,weatherlink.com 1.10,2013-04-03 00:32:00,
2013-04-02 19:47:00,43.9,43.0,30.03,North,9,12.0,18.0,95,0.04,,,0.32,weatherlink.com 1.10,2013-04-03 00:47:00,
2013-04-02 20:02:00,43.8,43.0,30.04,NNW,340,15.0,19.0,95,0.03,,,0.32,weatherlink.com 1.10,2013-04-03 01:02:00,
2013-04-02 20:20:00,43.7,42.0,30.03,NE,55,10.0,18.0,94,0.03,,,0.33,weatherlink.com 1.10,2013-04-03 01:20:00,
2013-04-02 20:33:00,43.9,42.0,30.03,NE,37,16.0,17.0,94,0.03,,,0.34,weatherlink.com 1.10,2013-04-03 01:33:00,
2013-04-02 20:48:00,43.6,42.0,30.02,NE,56,9.0,18.0,94,0.02,,,0.34,weatherlink.com 1.10,2013-04-03 01:48:00,
2013-04-02 21:03:00,43.5,42.0,30.05,NE,45,5.0,17.0,94,0.03,,,0.35,weatherlink.com 1.10,2013-04-03 02:03:00,
2013-04-02 21:18:00,43.4,42.0,30.03,ENE,62,12.0,18.0,94,0.03,,,0.36,weatherlink.com 1.10,2013-04-03 02:18:00,
2013-04-02 21:33:00,43.4,42.0,30.05,NE,55,7.0,16.0,94,0.02,,,0.36,weatherlink.com 1.10,2013-04-03 02:33:00,
2013-04-02 21:48:00,43.2,42.0,30.07,NE,55,11.0,18.0,94,0.03,,,0.37,weatherlink.com 1.10,2013-04-03 02:48:00,
2013-04-02 22:03:00,43.2,42.0,30.07,NE,42,4.0,17.0,94,0.03,,,0.38,weatherlink.com 1.10,2013-04-03 03:03:00,
2013-04-02 22:18:00,42.9,41.0,30.06,NE,51,7.0,16.0,94,0.02,,,0.38,weatherlink.com 1.10,2013-04-03 03:18:00,
2013-04-02 22:33:00,42.6,41.0,30.05,East,92,8.0,16.0,95,0.03,,,0.39,weatherlink.com 1.10,2013-04-03 03:33:00,
2013-04-02 23:03:00,42.1,41.0,30.06,NE,44,9.0,13.0,95,0.02,,,0.40,weatherlink.com 1.10,2013-04-03 04:03:00,
2013-04-02 23:18:00,41.6,40.0,30.07,NNE,33,10.0,20.0,94,0.02,,,0.40,weatherlink.com 1.10,2013-04-03 04:18:00,
2013-04-02 23:33:00,41.2,40.0,30.06,ENE,59,8.0,16.0,95,0.02,,,0.41,weatherlink.com 1.10,2013-04-03 04:33:00,
2013-04-02 23:48:00,41.1,40.0,30.07,NNE,30,6.0,14.0,95,0.03,,,0.42,weatherlink.com 1.10,2013-04-03 04:48:00,